Overview Statistics Trail Chart Weather Telemetry Raw packets
 

This is the latest recevied weather packets stored in our database for station/object VK6WB. If no packets are shown the sender has not sent any weather packets the latest 10 day(s).

<< 27 28 29 30 31 32 33 >>
Time Temp. Humidity Pressure Rain* Wind** Luminosity Snow
1777173604 23.33° C 16% 1014.9 hPa 0 mm - 165 W/m² -
1777173005 23.33° C 14% 1015 hPa 0 mm - 10 W/m² -
1777172404 23.33° C 13% 1015.2 hPa 0 mm - 10 W/m² -
1777171804 23.33° C 10% 1015.4 hPa 0 mm - 10 W/m² -
1777171204 22.22° C 10% 1015.6 hPa 0 mm - 10 W/m² -
1777170604 22.22° C 10% 1015.7 hPa 0 mm - 10 W/m² -
1777170004 21.67° C 10% 1015.7 hPa 0 mm - 10 W/m² -
1777169404 21.11° C 10% 1015.7 hPa 0 mm - 10 W/m² -
1777168804 21.11° C 10% 1015.8 hPa 0 mm - 10 W/m² -
1777168204 20° C 10% 1016 hPa 0 mm - 10 W/m² -
1777167604 19.44° C 10% 1015.9 hPa 0 mm - 10 W/m² -
1777167004 18.89° C 10% 1016 hPa 0 mm - 10 W/m² -
1777166404 18.33° C 10% 1016.2 hPa 0 mm - 10 W/m² -
1777165804 17.78° C 10% 1016.4 hPa 0 mm - 10 W/m² -
1777165204 17.78° C 10% 1016.4 hPa 0 mm - 10 W/m² -
1777164604 16.67° C 10% 1016.5 hPa 0 mm - 10 W/m² -
1777164004 16.67° C 10% 1016.4 hPa 0 mm - 10 W/m² -
1777163404 16.67° C 10% 1016.4 hPa 0 mm - 10 W/m² -
1777162804 15.56° C 10% 1016.5 hPa 0 mm - 62 W/m² -
1777162205 15° C 10% 1016.4 hPa 0 mm - 114 W/m² -
1777161604 14.44° C 10% 1016.2 hPa 0 mm - 165 W/m² -
1777161004 13.89° C 10% 1016.1 hPa 0 mm - 217 W/m² -
1777160404 13.89° C 10% 1015.9 hPa 0 mm - 269 W/m² -
1777159804 13.89° C 10% 1015.7 hPa 0 mm - 320 W/m² -
1777159204 13.33° C 10% 1015.8 hPa 0 mm - 372 W/m² -

* Rain latest hour (hover to see other rain measurements)
** Current wind speed in m/s (hover to see current wind gust speed)